Location: Newark
(55.7083°N, 13.1992°E)
Time: 15:30:46
(UTC+00:00)

Transit 4A - Pass Details

Date: 27 February 2020
Orbit: 871 x 973 km, 66.8° (Epoch: 01 April)

Event Time Altitude Azimuth Distance (km) Brightness Sun altitude
Exits shadow 00:47:31 26° 24° (NNE) 1,645 9.6 -39.8°
Drops below altitude 10° 00:50:20 10° 42° (NE) 2,532 10.8 -39.7°
Sets 00:52:58 0° 50° (NE) 3,476 11.7 -39.5°
